Regional Weather Roundup
Issued by NWS

Home | Current Version | Previous Version | Text Only | Print | Product List | Glossary Off
Versions: 1 2 3 4 5 6 7 8 9 10 11 12 13 14 15 16 17 18 19 20 21 22 23 24 25 26 27 28 29 30 31 32 33 34 35 36 37 38 39 40 41 42 43 44 45 46 47 48 49 50

698
ASUS43 KDMX 121103
RWRIA

WEATHER ROUNDUP FOR IOWA
NATIONAL WEATHER SERVICE DES MOINES IA
500 AM CST FRI FEB 12 2016

NOTE: "FAIR" INDICATES FEW OR NO CLOUDS BELOW 12,000 FEET WITH NO
SIGNIFICANT WEATHER AND/OR OBSTRUCTIONS TO VISIBILITY.

* - THESE STATIONS ARE NOT NWS STATIONS...THUS NOT UNDER NWS
QUALITY CONTROL.  THEY ALSO DO NOT REPORT WEATHER SUCH
AS PRECIPITATION OR FOG.

IAZ001>003-012>014-020>022-031>034-043>046-121200-
   NORTHWEST IOWA

CITY           SKY/WX    TMP DP  RH WIND       PRES   REMARKS
CARROLL *      CLOUDY    18  14  86 NW15      30.28R WCI   3
CHEROKEE *     CLOUDY    16  15  93 NW5       30.31R WCI   9
DENISON *      CLOUDY    18  14  86 N7        30.27S WCI   8
LE MARS *      CLOUDY    19  19 100 N9        30.34R WCI   9
ORANGE CITY *  MOCLDY    18  16  93 N8        30.29R WCI   7
SHELDON *      CLOUDY    14  14 100 N13       30.29R WCI   0
SIOUX CITY     CLOUDY    19  15  84 N10       30.33R WCI   7
SPENCER        FLURRIES  14   9  80 N16       30.28R WCI  -2
STORM LAKE *   CLOUDY    16  16 100 NW15      30.27R WCI   1
$$

IAZ055>058-069>071-079>083-090>094-121200-
   SOUTHWEST IOWA

CITY           SKY/WX    TMP DP  RH WIND       PRES   REMARKS
ATLANTIC *     CLOUDY    21  18  86 N13       30.28R WCI   9
AUDUBON *      PTCLDY    18  14  86 N13       30.27R WCI   4
CLARINDA *     CLOUDY    27  21  80 N16       30.29R WCI  14
COUNCIL BLFS * CLOUDY    21  19  93 NW14      30.28R WCI   8
CRESTON *      CLOUDY    23  19  86 NW12G18   30.25R WCI  12
HARLAN  *      CLOUDY    18  16  93 N16       30.33R WCI   3
LAMONI         CLOUDY    22  18  85 NW7       30.23R WCI  13
RED OAK *      CLOUDY    25  21  86 N13       30.29R WCI  13
SHENANDOAH *   CLOUDY    27  25  93 N12       30.29R WCI  16
$$

IAZ047>049-059>061-072>074-084-121200-
   CENTRAL IOWA

CITY           SKY/WX    TMP DP  RH WIND       PRES   REMARKS
AMES           CLOUDY    18  13  80 NW14      30.25R WCI   4
ANKENY *       CLOUDY    19  16  86 NW13G20   30.26R WCI   7
BOONE *        CLOUDY    18  14  86 NW13      30.23S WCI   4
CHARITON *     CLOUDY    21  18  86 W8        30.23R WCI  12
DES MOINES     FLURRIES  20  15  81 NW16      30.26R WCI   6
GRINNELL*      CLOUDY    19  18  93 W12       30.22S WCI   7
KNOXVILLE *    CLOUDY    19  16  86 NW10      30.23R WCI   8
MARSHALLTOWN   CLOUDY    18  13  80 NW16      30.22R WCI   3
NEWTON *       CLOUDY    19  19 100 NW9       30.23R WCI   9
PELLA *        CLOUDY    19  17  92 NW8       30.25R WCI   9
$$

IAZ004>006-015-016-023>025-035-036-121200-
   NORTH CENTRAL IOWA

CITY           SKY/WX    TMP DP  RH WIND       PRES   REMARKS
ALGONA *       FLURRIES  16  14  93 N17G24    30.25R WCI   0
CLARION *      FLURRIES  16  12  86 NW18      30.24R WCI  -1
ESTHERVILLE    CLOUDY    13   9  84 NW18      30.26S WCI  -4
FORT DODGE *   CLOUDY    18  10  73 NW7       30.27R WCI   8
MASON CITY     CLOUDY    14  11  87 NW16      30.24R WCI  -2
FOREST CITY *  LGT SNOW  16  12  86 NW15      30.23R WCI   1
WEBSTER CITY * FLURRIES  18  14  86 NW15G21   30.23R WCI   3
IOWA FALLS *   CLOUDY    18  14  86 NW14      30.23R WCI   4
$$

IAZ007>011-017>019-026>030-037>042-050>054-066-121200-
   NORTHEAST IOWA

CITY           SKY/WX    TMP DP  RH WIND       PRES   REMARKS
CEDAR RAPIDS   CLOUDY    20  17  88 W12       30.19R WCI   8
CHARLES CITY * FLURRIES  14  14 100 NW14      30.21R WCI  -1
CLINTON *      FLURRIES  19  15  84 W8        30.19S WCI   9
DECORAH *      CLOUDY    14   9  79 NW9       30.16S WCI   2
DUBUQUE        CLOUDY    16   9  74 NW14      30.16R WCI   2
MONTICELLO *   CLOUDY    18  12  79 NW12      30.19S WCI   5
OELWEIN *      CLOUDY    14  10  85 NW14      30.19R WCI  -1
WATERLOO       CLOUDY    15  10  80 NW10      30.21S WCI   2
$$

IAZ064-065-067-068-078-121200-
   EAST CENTRAL IOWA

CITY           SKY/WX    TMP DP  RH WIND       PRES   REMARKS
DAVENPORT      CLOUDY    20  16  84 W10       30.19S WCI   9
IOWA CITY      CLOUDY    21  17  84 W8        30.23R WCI  11
MT. PLEASANT * CLOUDY    23  19  87 W5        30.22R WCI  16
MUSCATINE *    CLOUDY    21  18  86 W6        30.23R WCI  14
QUAD CITIES    CLOUDY    21  16  81 W8        30.20R WCI  11
$$

IAZ062-063-075>077-085>089-095>099-121200-
   SOUTHEAST IOWA

CITY           SKY/WX    TMP DP  RH WIND       PRES   REMARKS
BURLINGTON     CLOUDY    21  18  88 W7        30.21R WCI  12
FAIRFIELD *    CLOUDY    21  18  86 W7        30.22R WCI  13
FORT MADISON * CLOUDY    19  18  93 W3        30.22S
KEOKUK *       CLOUDY    19  18  93 CALM      30.21S
OSKALOOSA *    CLOUDY    20  17  91 W8        30.23R WCI  10
OTTUMWA        CLOUDY    20  18  92 W6        30.22R WCI  12
WASHINGTON *   CLOUDY    21  19  93 W8        30.23R WCI  12
$$

ABBREVIATIONS USED IN REMARKS
   TC - TEMPERATURES IN CELSIUS
  WCI - WIND CHILL INDEX
   HX - HEAT INDEX
  VSB - VISIBILITY
$$





USA.gov is the U.S. government's official web portal to all federal, state and local government web resources and services.